Location: Bois de la Silve
(44.4667°N, 6.7833°E)
Time: 08:37:03
(UTC+00:00)

Cosmos 468 Rocket - Pass Details

Date: 14 July 2020
Orbit: 743 x 780 km, 74.0° (Epoch: 14 August)

Event Time Altitude Azimuth Distance (km) Brightness Sun altitude
Rises 02:34:03 0° 338° (NNW) 3,266 7.6 -12.7°
Reaches altitude 10° 02:36:26 10° 337° (NNW) 2,338 6.8 -12.5°
Maximum altitude 02:41:45 81° 251° (WSW) 796 4.0 -11.8°
Drops below altitude 10° 02:47:03 10° 165° (SSE) 2,327 6.2 -11.2°
Sets 02:49:25 0° 164° (SSE) 3,249 7.0 -10.9°
